Change the Weather History Date:

Monday, November 12, 2012

  Actual Average Record
Temperature  
Mean Temperature 61 °F -  
Max Temperature 79 °F 72 °F 82 °F (2003)
Min Temperature 43 °F 35 °F 32 °F (2002)
Degree Days  
Heating Degree Days 4    
Growing Degree Days 11 (Base 50)    
Moisture  
Dew Point 39 °F    
Average Humidity 41    
Maximum Humidity 93    
Minimum Humidity 19    
Precipitation  
Precipitation 0.00 in - - ()
Sea Level Pressure  
Sea Level Pressure 30.12 in    
Wind  
Wind Speed 4 mph ()    
Max Wind Speed 9 mph    
Max Gust Speed -    
Visibility 11.9 miles    
Events      
Averages and records for this station are not official NWS values.
T = Trace of Precipitation, MM = Missing Value Source: Averaged Metar Reports

Daily Weather History Graph

Daily Weather History Graph

Search for Another Location

Airport or City:

Trip Planner

Search our weather history database for the weather conditions in past years. The results will help you decide how hot, cold, wet, or windy it might be!

Date:

Astronomy

Nov. 12, 2012 Rise Set
Actual Time 7:11 AM CST 6:12 PM CST
Civil Twilight 6:47 AM CST 6:36 PM CST
Nautical Twilight 6:20 AM CST 7:03 PM CST
Astronomical Twilight 5:53 AM CST 7:30 PM CST
Moon 5:45 AM CST (11/12) 5:17 PM CST (11/12)
Length of Visible Light 11h 48m
Length of Day
11h 01m
Waning Crescent, 2% of the Moon is Illuminated
Nov 12
Waning Crescent
Nov 13
New
Nov 20
First Quarter
Nov 28
Full
Dec 6
Last Quarter

Hourly Weather History & Observations

Time (CST) Temp. Windchill Dew Point Humidity Pressure Visibility Wind Dir Wind Speed Gust Speed Precip Events Conditions
2:54 AM 52 °F - 42 °F 59% 29.88 in 6 mi WNW 2.2 mph - -   Clear
5:51 AM 47 °F - 35 °F 53% 29.99 in 6 mi Calm Calm - -  
6:00 AM 41.0 °F - 35.6 °F 81% 30.00 in 10.0 mi Calm Calm - N/A   Clear
6:46 AM 41.0 °F 38.0 °F 39.2 °F 93% 30.30 in 12.0 mi North 4.6 mph - N/A   Clear
7:47 AM 44.6 °F 41.4 °F 30.2 °F 57% 30.33 in 12.0 mi NW 5.8 mph - N/A   Clear
8:44 AM 51 °F - 37 °F 48% 30.17 in 19 mi Calm Calm - -  
8:51 AM 55.4 °F - 30.2 °F 38% 30.12 in 12.0 mi West 2.3 mph - N/A   Clear
9:45 AM 60.8 °F - 33.8 °F 36% 30.39 in 12.0 mi Calm Calm - N/A   Clear
10:45 AM 66.2 °F - 50.0 °F 56% 30.38 in 14.0 mi North 4.6 mph - N/A   Clear
11:50 AM 68 °F - 38 °F 22% 30.13 in 19 mi ESE 6.7 mph - -   Clear
11:51 AM 68.0 °F - 35.6 °F 30% 30.06 in 14.0 mi NNE 3.5 mph - N/A   Clear
12:45 PM 71.6 °F - 37.4 °F 29% 30.33 in 14.0 mi NW 8.1 mph - N/A   Partly Cloudy
1:48 PM 75.2 °F - 41.0 °F 29% 30.26 in 14.0 mi NE 6.9 mph - N/A   Clear
2:40 PM 75 °F - 41 °F 19% 29.95 in 25 mi ESE 6.7 mph - -   Scattered Clouds
2:49 PM 77.0 °F - 41.0 °F 28% 29.93 in 14.0 mi ENE 6.9 mph - N/A   Scattered Clouds
3:45 PM 77.0 °F - 41.0 °F 28% 30.21 in 14.0 mi NE 9.2 mph - N/A   Mostly Cloudy
4:46 PM 75.2 °F - 42.8 °F 31% 30.19 in 14.0 mi NE 9.2 mph - N/A   Scattered Clouds
5:50 PM 74 °F - 46 °F 25% 29.84 in 25 mi NE 2.2 mph - -   Scattered Clouds
5:51 PM 71.6 °F - 41.0 °F 33% 29.96 in 14.0 mi North 9.2 mph - N/A   Mostly Cloudy
6:46 PM 66.2 °F - 39.2 °F 37% 30.22 in 10.0 mi NNE 9.2 mph - N/A   Mostly Cloudy
7:44 PM 62.6 °F - 39.2 °F 42% 30.26 in 10.0 mi North 9.2 mph - N/A   Mostly Cloudy
8:40 PM 64 °F - 40 °F 30% 29.88 in 6 mi NE 4.5 mph - -   Scattered Clouds
9:45 PM 57.2 °F - 39.2 °F 51% 30.30 in 10.0 mi North 9.2 mph - N/A   Mostly Cloudy
11:53 PM 59 °F - 38 °F 35% 29.92 in 6 mi North 2.2 mph - -   Overcast